AUA642 LOWW-LOWI

Flight info

Callsign AUA642
Flight time 0h 42m
Altitude 30000
Route SOVIL DCT SITNI DCT BAGSI DCT NANIT NANIT2A
Aircraft A321/M-SDE3FGHIRWY/LB1

Departure

Time 2026-05-04 07:56
Airport Vienna International Airport (LOWW)

Arrival

Time 2026-05-04 08:38
Airport Innsbruck Airport (LOWI)
Time Latitude Longitude Altitude Speed Heading
2026-05-04 07:29 48.11901 16.55699 622 ft 0 kts 25°
2026-05-04 07:45 48.11900 16.55698 610 ft 1 kts 25°
2026-05-04 07:45 48.11879 16.55682 622 ft 4 kts 32°
2026-05-04 07:45 48.11857 16.55658 623 ft 4 kts 47°
2026-05-04 07:45 48.11843 16.55626 626 ft 4 kts 84°
2026-05-04 07:46 48.11844 16.55609 626 ft 0 kts 116°
2026-05-04 07:49 48.11587 16.56396 618 ft 14 kts 116°
2026-05-04 07:49 48.11545 16.56523 615 ft 14 kts 116°
2026-05-04 07:49 48.11503 16.56651 614 ft 14 kts 116°
2026-05-04 07:50 48.11463 16.56779 613 ft 13 kts 118°
2026-05-04 07:50 48.11421 16.56904 614 ft 13 kts 116°
2026-05-04 07:50 48.11381 16.57030 619 ft 13 kts 116°
2026-05-04 07:50 48.11341 16.57155 622 ft 13 kts 116°
2026-05-04 07:51 48.11301 16.57279 610 ft 13 kts 116°
2026-05-04 07:51 48.11261 16.57401 618 ft 13 kts 116°
2026-05-04 07:51 48.11221 16.57522 613 ft 13 kts 116°
2026-05-04 07:51 48.11216 16.57642 620 ft 12 kts 49°
2026-05-04 07:52 48.11289 16.57683 610 ft 11 kts
2026-05-04 07:52 48.11359 16.57660 613 ft 10 kts 343°
2026-05-04 07:52 48.11422 16.57633 618 ft 9 kts 344°
2026-05-04 07:52 48.11499 16.57601 615 ft 15 kts 344°
2026-05-04 07:53 48.11623 16.57549 612 ft 22 kts 344°
2026-05-04 07:54 48.11961 16.57772 624 ft 8 kts 114°
2026-05-04 07:55 48.11929 16.57836 619 ft 8 kts 148°
2026-05-04 07:55 48.11909 16.57846 618 ft 0 kts 163°
2026-05-04 07:55 48.11874 16.57861 615 ft 25 kts 163°
2026-05-04 07:55 48.11463 16.58038 612 ft 95 kts 164°
2026-05-04 07:56 48.10625 16.58391 615 ft 149 kts 164°
2026-05-04 07:56 48.09549 16.58845 953 ft 165 kts 164°
2026-05-04 07:56 48.08420 16.59297 1592 ft 169 kts 167°
2026-05-04 07:56 48.07241 16.59775 1950 ft 187 kts 167°
2026-05-04 07:57 48.05909 16.60060 2300 ft 203 kts 191°
2026-05-04 07:57 48.04610 16.59027 2619 ft 229 kts 226°
2026-05-04 07:57 48.03629 16.56993 3301 ft 243 kts 233°
2026-05-04 07:57 48.02681 16.54917 4155 ft 248 kts 234°
2026-05-04 07:58 48.01689 16.52767 4975 ft 255 kts 234°
2026-05-04 07:58 48.00668 16.50568 5791 ft 260 kts 235°
2026-05-04 07:58 47.99608 16.48302 6547 ft 266 kts 234°
2026-05-04 07:58 47.98572 16.45972 7304 ft 270 kts 241°
2026-05-04 07:59 47.97968 16.43297 8063 ft 276 kts 260°
2026-05-04 07:59 47.97953 16.40415 8864 ft 280 kts 270°
2026-05-04 07:59 47.98082 16.37506 9641 ft 284 kts 270°
2026-05-04 07:59 47.98206 16.34532 9920 ft 288 kts 272°
2026-05-04 08:00 47.98328 16.31540 9990 ft 294 kts 271°
2026-05-04 08:00 47.98451 16.28335 10002 ft 324 kts 271°
2026-05-04 08:00 47.98582 16.24881 9999 ft 340 kts 271°
2026-05-04 08:02 47.99987 15.99837 12444 ft 354 kts 275°
2026-05-04 08:02 48.00291 15.96184 13102 ft 356 kts 274°
2026-05-04 08:02 48.00591 15.92488 13722 ft 360 kts 274°
2026-05-04 08:03 48.00883 15.88763 14363 ft 362 kts 274°
2026-05-04 08:03 48.01168 15.85039 14975 ft 364 kts 274°
2026-05-04 08:03 48.01449 15.81280 15583 ft 367 kts 274°
2026-05-04 08:03 48.01729 15.77473 16179 ft 370 kts 274°
2026-05-04 08:04 48.02015 15.73624 16763 ft 373 kts 274°
2026-05-04 08:04 48.02303 15.69762 17365 ft 375 kts 274°
2026-05-04 08:04 48.02592 15.65865 17917 ft 378 kts 274°
2026-05-04 08:04 48.02880 15.61950 18433 ft 381 kts 274°
2026-05-04 08:05 48.03168 15.58007 18883 ft 383 kts 274°
2026-05-04 08:05 48.03458 15.54030 19312 ft 386 kts 274°
2026-05-04 08:05 48.03749 15.50020 19732 ft 389 kts 274°
2026-05-04 08:05 48.04038 15.45993 20168 ft 391 kts 274°
2026-05-04 08:06 48.04327 15.41942 20587 ft 393 kts 274°
2026-05-04 08:06 48.04614 15.37866 20990 ft 396 kts 274°
2026-05-04 08:06 48.04816 15.33740 21379 ft 399 kts 271°
2026-05-04 08:06 48.04916 15.29584 21782 ft 401 kts 270°
2026-05-04 08:08 48.05202 14.99868 24535 ft 419 kts 271°
2026-05-04 08:08 48.05266 14.95517 24889 ft 420 kts 271°
2026-05-04 08:10 48.05595 14.61666 27579 ft 434 kts 270°
2026-05-04 08:11 48.05627 14.57156 27949 ft 435 kts 271°
2026-05-04 08:11 48.05695 14.46598 28712 ft 438 kts 271°
2026-05-04 08:11 48.05713 14.43520 28916 ft 439 kts 271°
2026-05-04 08:12 48.05737 14.38953 29207 ft 440 kts 271°
2026-05-04 08:12 48.05734 14.34380 29474 ft 442 kts 268°
2026-05-04 08:12 48.05358 14.29809 29721 ft 444 kts 259°
2026-05-04 08:12 48.04498 14.25361 29963 ft 446 kts 250°
2026-05-04 08:13 48.01820 14.16973 30055 ft 447 kts 245°
2026-05-04 08:13 47.99057 14.08680 30055 ft 444 kts 245°
2026-05-04 08:14 47.96320 14.00428 30055 ft 444 kts 245°
2026-05-04 08:16 47.85306 13.67553 30056 ft 444 kts 245°
2026-05-04 08:16 47.82538 13.59366 30064 ft 442 kts 244°
2026-05-04 08:17 47.79776 13.51214 30062 ft 440 kts 244°
2026-05-04 08:17 47.77028 13.43124 30063 ft 441 kts 244°
2026-05-04 08:19 47.65923 13.10708 30067 ft 440 kts 244°
2026-05-04 08:20 47.64533 13.06687 29859 ft 432 kts 244°
2026-05-04 08:20 47.63168 13.02752 29577 ft 428 kts 244°
2026-05-04 08:20 47.61809 12.98836 29293 ft 427 kts 244°
2026-05-04 08:20 47.60453 12.94922 29018 ft 427 kts 244°
2026-05-04 08:21 47.59093 12.91007 28739 ft 427 kts 244°
2026-05-04 08:21 47.57734 12.87106 28471 ft 426 kts 243°
2026-05-04 08:21 47.56397 12.83268 28202 ft 425 kts 243°
2026-05-04 08:21 47.55042 12.79372 27307 ft 427 kts 243°
2026-05-04 08:22 47.53668 12.75429 26130 ft 429 kts 243°
2026-05-04 08:22 47.52309 12.71535 24625 ft 423 kts 243°
2026-05-04 08:24 47.43395 12.46204 17042 ft 362 kts 241°
2026-05-04 08:24 47.42243 12.42948 16607 ft 354 kts 241°
2026-05-04 08:24 47.41112 12.39752 16133 ft 347 kts 242°
2026-05-04 08:24 47.40203 12.36482 15698 ft 342 kts 252°
2026-05-04 08:25 47.39757 12.33056 15237 ft 339 kts 263°
2026-05-04 08:25 47.39780 12.29593 14775 ft 337 kts 274°
2026-05-04 08:25 47.40108 12.26188 14323 ft 333 kts 276°
2026-05-04 08:25 47.40436 12.22802 13861 ft 331 kts 276°
2026-05-04 08:26 47.40754 12.19450 13359 ft 328 kts 276°
2026-05-04 08:27 47.42698 11.98398 10658 ft 243 kts 274°
2026-05-04 08:28 47.42711 11.95997 10585 ft 225 kts 262°
2026-05-04 08:28 47.42445 11.93854 10481 ft 206 kts 252°
2026-05-04 08:28 47.41970 11.91948 10381 ft 187 kts 244°
2026-05-04 08:28 47.41376 11.90358 10275 ft 169 kts 236°
2026-05-04 08:29 47.40713 11.88952 10189 ft 165 kts 234°
2026-05-04 08:29 47.40055 11.87560 10124 ft 164 kts 234°
2026-05-04 08:29 47.39400 11.86172 10049 ft 165 kts 233°
2026-05-04 08:31 47.35786 11.75723 8408 ft 163 kts 246°
2026-05-04 08:33 47.32777 11.64892 6642 ft 164 kts 244°
2026-05-04 08:33 47.32348 11.63343 6382 ft 163 kts 245°
2026-05-04 08:35 47.29348 11.52628 4612 ft 161 kts 248°
2026-05-04 08:35 47.28919 11.51108 4354 ft 160 kts 248°
2026-05-04 08:35 47.28495 11.49588 4140 ft 160 kts 248°
2026-05-04 08:35 47.28075 11.48083 3897 ft 160 kts 246°
2026-05-04 08:37 47.26533 11.39148 2451 ft 142 kts 261°
2026-05-04 08:37 47.26376 11.37724 2260 ft 141 kts 260°
2026-05-04 08:37 47.26227 11.36309 2017 ft 142 kts 260°
2026-05-04 08:38 47.26074 11.34901 1904 ft 131 kts 261°
2026-05-04 08:38 47.25969 11.33926 1902 ft 52 kts 261°
2026-05-04 08:38 47.25940 11.33706 1900 ft 11 kts 240°
2026-05-04 08:40 47.25787 11.34198 1904 ft 11 kts 80°
2026-05-04 08:40 47.25796 11.34298 1899 ft 9 kts 82°
2026-05-04 08:40 47.25805 11.34384 1900 ft 8 kts 79°
2026-05-04 08:41 47.25814 11.34458 1901 ft 7 kts 79°
2026-05-04 08:41 47.25822 11.34520 1897 ft 6 kts 79°
2026-05-04 08:41 47.25828 11.34572 1904 ft 5 kts 82°
2026-05-04 08:41 47.25832 11.34613 1904 ft 4 kts 82°
2026-05-04 08:42 47.25835 11.34644 1900 ft 3 kts 82°
2026-05-04 08:42 47.25837 11.34667 1895 ft 2 kts 82°
2026-05-04 08:42 47.25838 11.34683 1894 ft 1 kts 82°
2026-05-04 08:42 47.25840 11.34698 1898 ft 4 kts 81°
2026-05-04 08:43 47.25849 11.34777 1894 ft 11 kts 80°
2026-05-04 08:43 47.25861 11.34890 1904 ft 11 kts 81°
2026-05-04 08:43 47.25868 11.34965 1898 ft 1 kts 86°
2026-05-04 08:43 47.25868 11.34967 1898 ft 0 kts 98°
2026-05-04 08:44 47.25864 11.34971 1899 ft 2 kts 130°
2026-05-04 08:44 47.25830 11.34985 1896 ft 6 kts 170°
2026-05-04 08:46 47.25818 11.34988 1901 ft 0 kts 170°